SCP
0 0 0 0 0 0 0 0 0 0 0 0 0 0 0 0 0 0 0 0 0 0 0 0 0 0 0 0 0 0 0 0 0 0 0 0 0 0 0 0 0 0 0
0 0 0 0 0 0 0 0 0 0 0 0 0 0 0 0 0 0 0 0 0 0 0 0 0 0 0 0 0 0 0 0 0 0 0 0 0 0 0 0 0 0 0
0 0 0 0 0 0 0 0 0 0 0 0 0 0 0 0 0 0 0 0 0 0 0 0 0 0 0 0 0 0 0 0 0 0 0 0 0 0 0 0 0 0 0
0 0 0 0 0 0 0 0 0 0 0 0 0 0 0 0 0 0 0 0 0 0 0 0 0 0 0 0 0 0 0 0 0 0 0 0 0 0 0 0 0 0 0
0 0 0 0 0 0 0 0 0 0 0 0 0 0 0 0 0 0 0 0 0 0 0 0 0 0 0 0 0 0 0 0 0 0 0 0 0 0 0 0 0 0 0
0 0 0 0 0 0 0 0 0 0 0 0 0 0 0 0 0 0 0 0 0 0 0 0 0 0 0 0 0 0 0 0 0 0 0 0 0 0 0 0 0 0 0
0 0 0 0 0 0 0 0 0 0 0 0 0 0 0 0 0 0 0 0 0 0 0 0 0 0 0 0 0 0 0 0 0 0 0 0 0 0 0 0 0 0 0
0 0 0 0 0 0 0 0 0 0 0 0 0 0 0 0 0 0 0 0 0 0 0 0 0 0 0 0 0 0 0 0 0 0 0 0 0 0 0 0 0 0 0
0 0 0 0 0 0 0 0 0 0 0 0 0 0 0 0 0 0 0 0 0 0 0 0 0 0 0 0 0 0 0 0 0 0 0 0 0 0 0 0 0 0 0
0 0 0 0 0 0 0 0 0 0 0 0 0 0 0 0 0 0 0 -0 0 0 0 0 0 0 0 0 0 0 0 0 0 0 0 0 0 0 0 0 0 0 0
0 0 0 0 0 0 0 0 0 0 0 0 0 0 0 0 0 0 0 -0 0 0 0 0 0 0 0 0 0 0 0 0 0 0 0 0 0 0 0 0 0 0 0
0 0 0 0 0 0 0 0 0 0 0 0 0 0 0 0 0 0 0 0 0 0 0 0 0 0 0 0 0 0 0 0 0 0 0 0 0 0 0 0 0 0 0
0 0 0 0 0 0 0 0 0 0 0 0 0 0 0 0 0 0 0 0 0 0 0 0 0 0 0 0 0 0 0 0 0 0 0 0 0 0 0 0 0 0 0
0 0 0 0 0 0 0 0 0 0 0 0 0 0 0 0 0 0 0 0 0 0 0 0 0 0 0 0 0 0 0 0 0 0 0 0 0 0 0 0 0 0 0
0 0 0 0 0 0 0 0 0 0 0 0 0 0 0 0 0 0 0 0 0 0 0 0 0 0 0 0 0 0 0 0 0 0 0 0 0 0 0 0 0 0 0
0 0 0 0 0 0 0 0 0 0 0 0 0 0 0 0 0 0 0 0 0 0 0 0 0 0 0 0 0 0 0 0 0 0 0 0 0 0 0 0 0 0 0
0 0 0 0 0 0 0 0 0 0 0 0 0 0 0 0 0 0 0 0 0 0 0 0 0 0 0 0 0 0 0 0 0 0 0 0 0 0 0 0 0 0 0
0 0 0 0 0 0 0 0 0 0 0 0 0 0 0 0 0 0 0 0 0 0 0 0 0 0 0 0 0 0 0 0 0 0 0 0 0 0 0 0 0 0 0
0 0 0 0 0 0 0 0 0 0 0 0 0 0 0 0 0 0 0 0 0 0 0 0 0 0 0 0 0 0 0 0 0 0 0 0 0 0 0 0 0 0 0
0 0 0 0 0 0 0 0 0 0 0 0 0 0 0 0 0 0 0 0 0 0 0 0 0 0 0 0 0 0 0 0 0 0 0 0 0 0 0 0 0 0 0
0 0 0 0 0 0 0 0 0 0 0 0 0 0 0 0 0 0 0 0 0 0 0 0 0 0 0 0 0 0 0 0 0 0 0 0 0 0 0 0 0 0 0
0 0 0 0 0 0 0 0 0 0 0 0 0 0 0 0 0 0 0 0 0 0 0 0 0 0 0 0 0 0 0 0 0 0 0 0 0 0 0 0 0 0 0
0 0 0 0 0 0 0 0 0 0 0 0 0 0 0 0 0 0 0 0 0 0 0 0 0 0 0 0 0 0 0 0 0 0 0 0 0 0 0 0 0 0 0
0 0 0 0 0 0 0 0 0 0 0 0 0 0 0 0 0 0 0 0 0 0 0 0 0 0 0 0 0 0 0 0 0 -0 0 0 0 0 0 0 0 0 0
0 0 0 0 0 0 0 0 0 0 0 0 0 0 0 0 0 0 0 0 0 0 0 0 0 0 0 0 0 0 0 0 0 0 0 0 0 0 0 0 0 0 0
0 0 0 0 0 0 0 0 0 0 0 0 0 0 0 0 0 0 0 0 0 0 0 0 0 0 0 0 0 0 0 0 0 0 0 0 0 0 0 0 0 0 0
Wind_Speed
8 8 9 9 9 10 10 11 11 10 12 12 12 12 12 12 11 10 11 12 11 11 11 11 11 10 7 6 6 6 6 7 9 7 6 7 9 9 10 9 8 8 6
9 9 10 10 10 10 11 12 11 11 11 12 12 12 12 12 11 11 13 13 12 12 12 11 11 8 8 6 6 6 7 6 7 9 7 6 8 8 8 9 8 7 5
9 10 10 10 11 11 11 12 11 11 12 12 12 12 13 13 13 12 12 12 12 12 11 11 10 9 8 6 7 6 6 6 5 6 7 5 5 5 7 7 7 5 6
10 10 10 11 11 11 11 11 11 12 12 12 12 13 13 14 14 13 13 12 12 11 9 9 8 8 7 7 6 6 6 6 5 5 5 4 4 4 4 5 4 4 5
10 10 11 11 11 11 11 11 11 11 13 12 13 13 14 13 12 15 12 10 9 8 7 7 7 8 9 7 5 5 5 4 4 4 4 4 4 4 4 5 5 5 5
9 10 11 11 11 11 10 10 11 11 11 12 13 14 15 15 23 22 13 8 7 6 6 6 6 6 9 12 13 13 11 8 6 5 4 5 6 6 6 6 6 4 3
9 10 10 10 11 11 12 11 11 11 11 12 13 14 15 19 27 23 22 11 9 7 6 6 6 5 7 5 9 13 14 16 14 7 6 6 7 7 8 7 6 5 4
8 9 10 10 10 10 10 10 10 9 10 10 11 14 15 20 29 24 21 12 9 10 9 7 6 4 6 7 7 8 8 9 11 7 6 7 7 7 7 7 8 7 6
8 9 10 10 10 10 10 10 9 8 8 10 11 13 14 18 27 26 20 8 9 11 12 11 9 8 16 16 9 7 8 8 13 16 16 14 16 16 12 6 5 4 2
9 10 10 9 10 9 9 9 8 8 9 11 11 11 12 14 25 26 20 8 10 10 10 12 16 16 19 18 9 7 8 8 9 10 11 13 11 12 16 8 5 4 2
9 9 9 9 8 8 8 7 8 9 10 9 10 10 10 14 20 25 23 8 10 10 10 9 11 21 21 20 15 10 12 10 8 8 8 8 9 8 9 8 6 4 2
8 8 8 8 7 9 8 8 8 8 8 7 7 9 8 10 16 19 23 20 15 10 8 7 10 21 21 21 15 17 19 14 8 8 8 9 10 10 10 9 9 6 4
8 8 8 8 7 7 7 7 7 6 6 7 6 7 8 8 9 18 19 19 19 10 8 15 16 19 17 13 19 20 15 9 9 9 9 9 9 9 9 8 9 8 7
8 8 7 7 7 7 6 6 6 6 6 6 6 7 7 7 6 5 5 7 11 9 7 11 15 16 13 14 14 12 9 9 9 8 8 8 9 9 9 9 8 8 6
8 8 8 8 7 7 7 6 8 5 9 8 5 5 6 6 9 14 8 5 4 6 6 5 6 6 7 7 7 8 8 9 9 8 9 9 9 10 9 9 9 8 7
8 8 6 6 6 7 7 8 13 14 17 17 15 12 9 12 14 13 13 12 12 12 6 4 5 5 6 6 7 7 7 8 8 8 8 8 9 9 9 9 9 9 9
7 8 7 7 7 7 7 8 9 12 16 16 16 16 14 14 14 13 11 10 9 8 3 2 3 3 3 4 4 4 5 6 6 6 7 8 8 8 8 9 9 9 9
7 9 9 6 6 6 7 7 7 9 10 9 12 15 16 15 14 13 11 7 4 3 1 2 2 2 2 2 3 3 4 4 4 5 6 6 7 7 8 9 9 10 9
7 6 6 5 5 6 6 7 7 8 8 9 8 10 14 14 13 12 10 3 4 4 3 3 3 2 2 2 2 2 3 3 3 4 4 5 6 6 7 7 8 13 11
5 12 10 6 6 7 7 7 7 8 9 8 9 9 9 7 5 6 5 5 5 5 5 4 4 3 3 2 2 2 2 2 3 3 3 4 4 4 5 7 7 7 7
4 7 12 7 6 6 6 6 7 8 8 9 9 12 19 8 7 8 7 6 6 6 6 5 5 4 4 3 2 2 2 1 1 2 2 3 3 3 4 4 5 6 6
4 4 5 5 6 6 7 6 7 8 9 10 10 12 19 10 8 8 7 7 7 6 6 6 5 5 5 5 4 4 3 2 1 1 1 1 2 2 3 3 4 5 5
3 5 5 5 5 9 8 7 7 8 9 10 10 10 10 10 10 10 9 8 7 6 6 6 6 6 6 6 5 5 5 4 3 3 2 0 1 1 2 2 3 4 4
3 4 5 5 6 6 7 8 8 9 10 10 10 11 11 11 11 12 11 10 8 7 6 6 7 9 10 8 6 6 5 5 4 4 4 3 1 0 1 1 2 2 2
3 4 4 5 6 6 7 8 8 9 10 10 10 11 11 12 12 12 12 11 11 9 9 7 6 8 12 13 9 8 11 13 10 6 5 4 3 2 1 1 1 1 1
2 3 4 4 5 5 6 7 8 10 10 10 10 11 12 12 12 12 12 13 13 10 9 6 7 8 10 10 12 15 17 16 14 13 7 5 4 3 3 2 2 2 2
Wind_Direction
336 332 330 325 324 322 320 319 317 315 318 320 319 318 317 314 312 311 308 306 305 306 306 306 302 295 289 290 291 293 292 288 288 297 303 309 308 312 312 312 313 308 304
333 332 329 326 324 323 322 320 318 318 319 318 318 317 316 316 311 308 305 307 302 303 305 307 308 305 300 295 293 294 293 290 291 299 302 306 301 302 306 308 307 303 301
334 333 329 328 328 326 323 322 321 322 321 320 321 318 316 313 309 304 299 297 296 296 298 301 303 304 302 299 297 296 296 297 293 294 297 297 293 304 313 302 299 301 303
337 334 333 331 328 326 324 325 326 326 326 326 323 321 319 315 308 299 296 295 295 293 294 298 301 303 301 303 305 309 310 307 305 305 304 307 308 314 316 316 315 317 299
335 335 333 328 326 326 328 328 329 330 334 329 328 327 324 320 310 305 302 303 299 300 303 305 308 323 338 346 356 356 350 348 343 336 331 331 341 344 339 327 311 303 284
331 331 330 332 333 333 333 334 334 332 331 332 333 331 329 330 330 340 354 342 333 325 322 324 324 339 355 5 15 21 22 21 11 358 347 348 346 340 326 316 312 302 285
330 330 333 334 335 336 338 339 336 333 333 335 334 336 335 333 347 4 12 10 5 358 349 345 348 1 16 9 20 29 24 24 24 17 359 348 339 337 325 312 305 297 284
329 331 334 336 335 335 337 339 335 330 335 335 335 339 340 341 355 10 17 14 13 11 5 357 1 18 42 51 40 33 22 16 16 15 3 350 347 343 327 305 296 289 276
337 337 337 337 337 338 341 338 333 330 333 338 341 340 342 341 355 17 28 12 14 14 12 16 31 41 53 52 40 31 23 11 10 15 14 10 5 2 2 345 325 291 278
338 334 333 336 335 335 336 331 329 330 337 339 340 339 339 340 357 15 33 22 18 17 17 15 30 46 47 48 36 24 26 7 358 358 3 1 358 356 4 0 338 312 299
329 329 332 333 329 335 331 326 328 334 335 332 334 335 337 350 357 11 28 35 25 20 23 18 25 38 39 39 36 28 27 19 359 358 358 357 357 356 354 349 343 325 307
327 329 328 327 330 343 326 322 324 327 327 327 332 338 340 343 358 8 21 31 37 24 19 17 25 34 33 32 32 27 25 20 7 7 7 4 359 354 348 343 343 344 339
329 327 323 323 321 324 319 317 321 325 327 333 337 340 340 343 347 10 19 25 29 29 17 26 31 34 30 25 24 26 21 16 11 10 6 359 352 346 347 348 353 355 10
326 323 323 324 324 321 320 324 324 323 323 327 336 336 331 332 330 344 0 19 26 29 19 20 26 29 30 25 22 18 14 15 16 7 359 353 352 358 3 1 1 1 20
324 324 324 328 322 322 328 325 329 316 336 341 321 315 328 326 347 7 15 13 16 29 24 12 13 16 18 15 14 14 11 11 12 5 3 0 2 4 6 5 11 18 33
332 332 325 326 328 328 324 326 335 342 343 345 342 341 332 340 347 356 3 7 15 23 30 10 11 11 12 10 9 7 8 9 6 5 6 4 5 5 8 11 16 24 32
327 327 324 331 328 328 328 328 326 331 337 341 342 339 336 334 339 341 345 355 1 14 24 349 347 350 353 355 355 356 356 356 359 5 8 5 5 8 12 16 19 23 29
325 327 332 320 320 320 319 319 321 325 327 327 332 334 332 330 327 326 327 338 331 335 286 286 296 307 317 330 339 345 346 351 360 4 5 5 7 12 16 17 21 27 29
325 323 323 320 320 319 319 322 325 327 325 323 323 326 329 323 319 317 319 294 269 268 261 258 258 266 274 291 310 326 337 345 355 358 5 6 6 14 20 19 23 30 36
318 334 342 334 326 325 325 330 333 331 327 325 326 322 319 315 308 307 300 276 263 257 251 246 244 241 240 247 266 291 321 338 350 357 0 4 6 15 21 24 26 29 32
314 325 341 337 325 322 324 331 330 329 328 328 326 326 338 339 320 308 299 287 271 260 252 243 237 231 225 220 225 240 257 289 318 338 352 1 8 16 17 24 29 33 37
317 317 321 322 325 328 337 332 330 331 331 331 329 330 338 338 322 313 303 292 279 264 252 243 234 224 214 208 206 210 220 232 241 262 322 355 10 19 24 29 32 35 39
326 325 329 330 328 338 343 334 335 335 334 331 330 333 335 333 330 325 316 306 292 277 259 244 236 226 217 211 204 198 203 212 209 198 201 228 10 23 33 36 37 40 41
330 329 331 334 336 338 336 335 335 336 336 333 334 334 334 332 330 328 325 317 306 292 272 251 238 228 219 211 205 200 200 204 195 192 191 189 196 189 75 57 48 50 48
331 328 329 330 334 335 335 335 335 336 335 334 335 334 332 331 330 329 327 324 317 306 292 271 248 231 223 216 206 201 211 217 212 193 182 181 189 193 185 167 137 103 89
326 326 324 326 331 332 333 333 333 334 333 333 333 331 330 330 329 328 328 328 327 319 307 290 261 240 223 214 210 211 218 220 218 212 181 175 185 193 188 183 180 165 137